owner,sensor,date,latitude,longitude,vertical_datum,sea_water_speed,direction_of_sea_water_velocity,upward_sea_water_velocity,qcFlag
Anadarko,ioos:station:wmo:42377:1,2024-05-01T00:14:00Z,27.2925,-90.9681,21.3,34.4,196.7,-9999.0,'111111111,111111111,999999991'
Anadarko,ioos:station:wmo:42377:1,2024-05-01T00:34:00Z,27.2925,-90.9681,21.3,39.3,203.7,-9999.0,'111111111,111111111,999999991'
Anadarko,ioos:station:wmo:42377:1,2024-05-01T00:54:00Z,27.2925,-90.9681,21.3,35.0,201.4,-9999.0,'111111111,111111111,999999991'
Anadarko,ioos:station:wmo:42377:1,2024-05-01T01:14:00Z,27.2925,-90.9681,21.3,34.4,199.3,-9999.0,'111111111,111111111,999999991'
Anadarko,ioos:station:wmo:42377:1,2024-05-01T01:34:00Z,27.2925,-90.9681,21.3,34.4,201.3,-9999.0,'111111111,111111111,999999991'
Anadarko,ioos:station:wmo:42377:1,2024-05-01T01:54:00Z,27.2925,-90.9681,21.3,34.5,202.8,-9999.0,'111111111,111111111,999999991'
Anadarko,ioos:station:wmo:42377:1,2024-05-01T02:14:00Z,27.2925,-90.9681,21.3,34.4,204.6,-9999.0,'111111111,111111111,999999991'
Anadarko,ioos:station:wmo:42377:1,2024-05-01T02:34:00Z,27.2925,-90.9681,21.3,34.8,208.5,-9999.0,'111111111,111111111,999999991'
Anadarko,ioos:station:wmo:42377:1,2024-05-01T02:54:00Z,27.2925,-90.9681,21.3,34.4,213.7,-9999.0,'111111111,111111111,999999991'
Anadarko,ioos:station:wmo:42377:1,2024-05-01T03:14:00Z,27.2925,-90.9681,21.3,32.0,218.4,-9999.0,'111111111,111111111,999999991'
Anadarko,ioos:station:wmo:42377:1,2024-05-01T03:34:00Z,27.2925,-90.9681,21.3,31.8,221.8,-9999.0,'111111111,111111111,999999991'
Anadarko,ioos:station:wmo:42377:1,2024-05-01T03:54:00Z,27.2925,-90.9681,21.3,32.8,223.4,-9999.0,'111111111,111111111,999999991'
Anadarko,ioos:station:wmo:42377:1,2024-05-01T04:14:00Z,27.2925,-90.9681,21.3,34.1,226.4,-9999.0,'111111111,111111111,999999991'
Anadarko,ioos:station:wmo:42377:1,2024-05-01T04:34:00Z,27.2925,-90.9681,21.3,34.9,229.0,-9999.0,'111111111,111111111,999999991'
Anadarko,ioos:station:wmo:42377:1,2024-05-01T04:54:00Z,27.2925,-90.9681,21.3,35.1,230.5,-9999.0,'111111111,111111111,999999991'
Anadarko,ioos:station:wmo:42377:1,2024-05-01T05:14:00Z,27.2925,-90.9681,21.3,34.3,232.9,-9999.0,'111111111,111111111,999999991'
Anadarko,ioos:station:wmo:42377:1,2024-05-01T05:34:00Z,27.2925,-90.9681,21.3,34.2,235.6,-9999.0,'111111111,111111111,999999991'
Anadarko,ioos:station:wmo:42377:1,2024-05-01T05:54:00Z,27.2925,-90.9681,21.3,33.9,240.9,-9999.0,'111111111,111111111,999999991'
Anadarko,ioos:station:wmo:42377:1,2024-05-01T06:14:00Z,27.2925,-90.9681,21.3,31.6,243.5,-9999.0,'111111111,111111111,999999991'
Anadarko,ioos:station:wmo:42377:1,2024-05-01T06:34:00Z,27.2925,-90.9681,21.3,30.7,251.6,-9999.0,'111111111,111111111,999999991'
Anadarko,ioos:station:wmo:42377:1,2024-05-01T06:54:00Z,27.2925,-90.9681,21.3,30.3,258.8,-9999.0,'111111111,111111111,999999991'
Anadarko,ioos:station:wmo:42377:1,2024-05-01T07:14:00Z,27.2925,-90.9681,21.3,26.9,262.1,-9999.0,'111111111,111111111,999999991'
Anadarko,ioos:station:wmo:42377:1,2024-05-01T07:34:00Z,27.2925,-90.9681,21.3,28.3,264.7,-9999.0,'111111111,111111111,999999991'
Anadarko,ioos:station:wmo:42377:1,2024-05-01T07:54:00Z,27.2925,-90.9681,21.3,29.9,269.6,-9999.0,'111111111,111111111,999999991'
Anadarko,ioos:station:wmo:42377:1,2024-05-01T08:14:00Z,27.2925,-90.9681,21.3,29.5,274.9,-9999.0,'111111111,111111111,999999991'
Anadarko,ioos:station:wmo:42377:1,2024-05-01T08:34:00Z,27.2925,-90.9681,21.3,29.4,279.8,-9999.0,'111111111,111111111,999999991'
Anadarko,ioos:station:wmo:42377:1,2024-05-01T08:54:00Z,27.2925,-90.9681,21.3,28.4,284.9,-9999.0,'111111111,111111111,999999991'
Anadarko,ioos:station:wmo:42377:1,2024-05-01T09:14:00Z,27.2925,-90.9681,21.3,27.0,291.7,-9999.0,'111111111,111111111,999999991'
Anadarko,ioos:station:wmo:42377:1,2024-05-01T09:34:00Z,27.2925,-90.9681,21.3,24.5,292.8,-9999.0,'111111111,111111111,999999991'
Anadarko,ioos:station:wmo:42377:1,2024-05-01T09:54:00Z,27.2925,-90.9681,21.3,25.8,291.8,-9999.0,'111111111,111111111,999999991'
Anadarko,ioos:station:wmo:42377:1,2024-05-01T10:14:00Z,27.2925,-90.9681,21.3,22.3,299.9,-9999.0,'111111111,111111111,999999991'
Anadarko,ioos:station:wmo:42377:1,2024-05-01T10:34:00Z,27.2925,-90.9681,21.3,24.3,299.3,-9999.0,'111111111,111111111,999999991'
Anadarko,ioos:station:wmo:42377:1,2024-05-01T10:54:00Z,27.2925,-90.9681,21.3,26.2,299.5,-9999.0,'111111111,111111111,999999991'
Anadarko,ioos:station:wmo:42377:1,2024-05-01T11:14:00Z,27.2925,-90.9681,21.3,19.8,314.6,-9999.0,'111111111,111111111,999999991'
Anadarko,ioos:station:wmo:42377:1,2024-05-01T11:34:00Z,27.2925,-90.9681,21.3,17.4,310.1,-9999.0,'111111111,111111111,999999991'
Anadarko,ioos:station:wmo:42377:1,2024-05-01T11:54:00Z,27.2925,-90.9681,21.3,17.5,313.8,-9999.0,'111111111,111111111,999999991'
Anadarko,ioos:station:wmo:42377:1,2024-05-01T12:14:00Z,27.2925,-90.9681,21.3,18.6,317.0,-9999.0,'111111111,111111111,999999991'
Anadarko,ioos:station:wmo:42377:1,2024-05-01T12:34:00Z,27.2925,-90.9681,21.3,18.7,313.9,-9999.0,'111111111,111111111,999999991'
Anadarko,ioos:station:wmo:42377:1,2024-05-01T12:54:00Z,27.2925,-90.9681,21.3,19.5,311.9,-9999.0,'111111111,111111111,999999991'
Anadarko,ioos:station:wmo:42377:1,2024-05-01T13:14:00Z,27.2925,-90.9681,21.3,20.3,311.2,-9999.0,'111111111,111111111,999999991'
Anadarko,ioos:station:wmo:42377:1,2024-05-01T13:34:00Z,27.2925,-90.9681,21.3,19.0,319.7,-9999.0,'111111111,111111111,999999991'
Anadarko,ioos:station:wmo:42377:1,2024-05-01T13:54:00Z,27.2925,-90.9681,21.3,20.7,335.2,-9999.0,'111111111,111111111,999999991'
Anadarko,ioos:station:wmo:42377:1,2024-05-01T14:14:00Z,27.2925,-90.9681,21.3,19.0,327.5,-9999.0,'111111111,111111111,999999991'
Anadarko,ioos:station:wmo:42377:1,2024-05-01T14:34:00Z,27.2925,-90.9681,21.3,17.0,339.6,-9999.0,'111111111,111111111,999999991'
Anadarko,ioos:station:wmo:42377:1,2024-05-01T14:54:00Z,27.2925,-90.9681,21.3,16.1,2.8,-9999.0,'111111111,111111111,999999991'
Anadarko,ioos:station:wmo:42377:1,2024-05-01T15:14:00Z,27.2925,-90.9681,21.3,16.2,17.2,-9999.0,'111111111,111111111,999999991'
Anadarko,ioos:station:wmo:42377:1,2024-05-01T15:34:00Z,27.2925,-90.9681,21.3,12.4,3.7,-9999.0,'111111111,111111111,999999991'
Anadarko,ioos:station:wmo:42377:1,2024-05-01T15:54:00Z,27.2925,-90.9681,21.3,12.7,19.7,-9999.0,'111111111,111111111,999999991'
Anadarko,ioos:station:wmo:42377:1,2024-05-01T16:14:00Z,27.2925,-90.9681,21.3,11.6,359.0,-9999.0,'111111111,111441111,999999991'
Anadarko,ioos:station:wmo:42377:1,2024-05-01T16:34:00Z,27.2925,-90.9681,21.3,10.3,36.3,-9999.0,'111111111,111111111,999999991'
Anadarko,ioos:station:wmo:42377:1,2024-05-01T16:54:00Z,27.2925,-90.9681,21.3,14.9,53.4,-9999.0,'111111111,111111111,999999991'
Anadarko,ioos:station:wmo:42377:1,2024-05-01T17:14:00Z,27.2925,-90.9681,21.3,13.1,58.7,-9999.0,'111111111,111111111,999999991'
Anadarko,ioos:station:wmo:42377:1,2024-05-01T17:34:00Z,27.2925,-90.9681,21.3,24.3,64.4,-9999.0,'111111111,111111111,999999991'
Anadarko,ioos:station:wmo:42377:1,2024-05-01T17:54:00Z,27.2925,-90.9681,21.3,12.7,84.1,-9999.0,'111111111,111111111,999999991'
Anadarko,ioos:station:wmo:42377:1,2024-05-01T18:14:00Z,27.2925,-90.9681,21.3,13.4,80.5,-9999.0,'111111111,111111111,999999991'
Anadarko,ioos:station:wmo:42377:1,2024-05-01T18:34:00Z,27.2925,-90.9681,21.3,12.6,83.2,-9999.0,'111111111,111111111,999999991'
Anadarko,ioos:station:wmo:42377:1,2024-05-01T18:54:00Z,27.2925,-90.9681,21.3,11.8,87.1,-9999.0,'111111111,111111111,999999991'
Anadarko,ioos:station:wmo:42377:1,2024-05-01T19:14:00Z,27.2925,-90.9681,21.3,9.6,104.5,-9999.0,'111111111,111111111,999999991'
Anadarko,ioos:station:wmo:42377:1,2024-05-01T19:34:00Z,27.2925,-90.9681,21.3,17.6,171.8,-9999.0,'111111111,111111111,999999991'
Anadarko,ioos:station:wmo:42377:1,2024-05-01T19:54:00Z,27.2925,-90.9681,21.3,9.6,163.6,-9999.0,'111111111,111111111,999999991'
Anadarko,ioos:station:wmo:42377:1,2024-05-01T20:14:00Z,27.2925,-90.9681,21.3,8.5,188.1,-9999.0,'111111111,111111111,999999991'
Anadarko,ioos:station:wmo:42377:1,2024-05-01T20:34:00Z,27.2925,-90.9681,21.3,15.5,169.2,-9999.0,'111111111,111111111,999999991'
Anadarko,ioos:station:wmo:42377:1,2024-05-01T20:54:00Z,27.2925,-90.9681,21.3,14.3,110.5,-9999.0,'111111111,111111111,999999991'
Anadarko,ioos:station:wmo:42377:1,2024-05-01T21:14:00Z,27.2925,-90.9681,21.3,16.7,102.5,-9999.0,'111111111,111111111,999999991'
Anadarko,ioos:station:wmo:42377:1,2024-05-01T21:34:00Z,27.2925,-90.9681,21.3,17.6,101.8,-9999.0,'111111111,111111111,999999991'
Anadarko,ioos:station:wmo:42377:1,2024-05-01T21:54:00Z,27.2925,-90.9681,21.3,21.2,108.7,-9999.0,'111111111,111111111,999999991'
Anadarko,ioos:station:wmo:42377:1,2024-05-01T22:14:00Z,27.2925,-90.9681,21.3,26.1,107.4,-9999.0,'111111111,111111111,999999991'
Anadarko,ioos:station:wmo:42377:1,2024-05-01T22:34:00Z,27.2925,-90.9681,21.3,26.4,114.1,-9999.0,'111111111,111111111,999999991'
Anadarko,ioos:station:wmo:42377:1,2024-05-01T22:54:00Z,27.2925,-90.9681,21.3,21.3,130.4,-9999.0,'111111111,111111111,999999991'
Anadarko,ioos:station:wmo:42377:1,2024-05-01T23:14:00Z,27.2925,-90.9681,21.3,19.9,142.6,-9999.0,'111111111,111111111,999999991'
Anadarko,ioos:station:wmo:42377:1,2024-05-01T23:34:00Z,27.2925,-90.9681,21.3,20.0,160.8,-9999.0,'111111111,111111111,999999991'
Anadarko,ioos:station:wmo:42377:1,2024-05-01T23:54:00Z,27.2925,-90.9681,21.3,27.6,189.4,-9999.0,'111111111,111111111,999999991'
Anadarko,ioos:station:wmo:42377:1,2024-05-02T00:14:00Z,27.2925,-90.9681,21.3,22.0,175.3,-9999.0,'111111111,111111111,999999991'
Anadarko,ioos:station:wmo:42377:1,2024-05-02T00:34:00Z,27.2925,-90.9681,21.3,23.1,172.0,-9999.0,'111111111,111111111,999999991'
Anadarko,ioos:station:wmo:42377:1,2024-05-02T00:54:00Z,27.2925,-90.9681,21.3,26.7,181.5,-9999.0,'111111111,111111111,999999991'
Anadarko,ioos:station:wmo:42377:1,2024-05-02T01:14:00Z,27.2925,-90.9681,21.3,28.0,183.7,-9999.0,'111111111,111111111,999999991'
Anadarko,ioos:station:wmo:42377:1,2024-05-02T01:34:00Z,27.2925,-90.9681,21.3,29.9,190.4,-9999.0,'111111111,111111111,999999991'
Anadarko,ioos:station:wmo:42377:1,2024-05-02T01:54:00Z,27.2925,-90.9681,21.3,30.0,193.5,-9999.0,'111111111,111111111,999999991'
Anadarko,ioos:station:wmo:42377:1,2024-05-02T02:14:00Z,27.2925,-90.9681,21.3,30.5,198.1,-9999.0,'111111111,111111111,999999991'
Anadarko,ioos:station:wmo:42377:1,2024-05-02T02:34:00Z,27.2925,-90.9681,21.3,30.2,200.2,-9999.0,'111111111,111111111,999999991'
Anadarko,ioos:station:wmo:42377:1,2024-05-02T02:54:00Z,27.2925,-90.9681,21.3,31.1,206.7,-9999.0,'111111111,111111111,999999991'
Anadarko,ioos:station:wmo:42377:1,2024-05-02T03:14:00Z,27.2925,-90.9681,21.3,32.2,205.0,-9999.0,'111111111,111111111,999999991'
Anadarko,ioos:station:wmo:42377:1,2024-05-02T03:34:00Z,27.2925,-90.9681,21.3,32.2,209.4,-9999.0,'111111111,111111111,999999991'
Anadarko,ioos:station:wmo:42377:1,2024-05-02T03:54:00Z,27.2925,-90.9681,21.3,31.3,212.9,-9999.0,'111111111,111111111,999999991'
Anadarko,ioos:station:wmo:42377:1,2024-05-02T04:14:00Z,27.2925,-90.9681,21.3,30.1,213.9,-9999.0,'111111111,111111111,999999991'
Anadarko,ioos:station:wmo:42377:1,2024-05-02T04:34:00Z,27.2925,-90.9681,21.3,28.8,216.7,-9999.0,'111111111,111111111,999999991'
Anadarko,ioos:station:wmo:42377:1,2024-05-02T04:54:00Z,27.2925,-90.9681,21.3,27.8,221.9,-9999.0,'111111111,111111111,999999991'
Anadarko,ioos:station:wmo:42377:1,2024-05-02T05:14:00Z,27.2925,-90.9681,21.3,29.3,229.0,-9999.0,'111111111,111111111,999999991'
Anadarko,ioos:station:wmo:42377:1,2024-05-02T05:34:00Z,27.2925,-90.9681,21.3,30.0,231.6,-9999.0,'111111111,111111111,999999991'
Anadarko,ioos:station:wmo:42377:1,2024-05-02T05:54:00Z,27.2925,-90.9681,21.3,31.0,241.0,-9999.0,'111111111,111111111,999999991'
Anadarko,ioos:station:wmo:42377:1,2024-05-02T06:14:00Z,27.2925,-90.9681,21.3,27.3,245.3,-9999.0,'111111111,111111111,999999991'
Anadarko,ioos:station:wmo:42377:1,2024-05-02T06:34:00Z,27.2925,-90.9681,21.3,27.3,252.8,-9999.0,'111111111,111111111,999999991'
Anadarko,ioos:station:wmo:42377:1,2024-05-02T06:54:00Z,27.2925,-90.9681,21.3,27.8,252.4,-9999.0,'111111111,111111111,999999991'
Anadarko,ioos:station:wmo:42377:1,2024-05-02T07:14:00Z,27.2925,-90.9681,21.3,28.2,251.6,-9999.0,'111111111,111111111,999999991'
Anadarko,ioos:station:wmo:42377:1,2024-05-02T07:34:00Z,27.2925,-90.9681,21.3,26.9,248.7,-9999.0,'111111111,111111111,999999991'
Anadarko,ioos:station:wmo:42377:1,2024-05-02T07:54:00Z,27.2925,-90.9681,21.3,28.1,252.1,-9999.0,'111111111,111111111,999999991'
Anadarko,ioos:station:wmo:42377:1,2024-05-02T08:14:00Z,27.2925,-90.9681,21.3,27.1,254.2,-9999.0,'111111111,111111111,999999991'
Anadarko,ioos:station:wmo:42377:1,2024-05-02T08:34:00Z,27.2925,-90.9681,21.3,27.8,257.5,-9999.0,'111111111,111111111,999999991'
Anadarko,ioos:station:wmo:42377:1,2024-05-02T08:54:00Z,27.2925,-90.9681,21.3,25.8,260.9,-9999.0,'111111111,111111111,999999991'
Anadarko,ioos:station:wmo:42377:1,2024-05-02T09:14:00Z,27.2925,-90.9681,21.3,27.3,264.3,-9999.0,'111111111,111111111,999999991'
Anadarko,ioos:station:wmo:42377:1,2024-05-02T09:34:00Z,27.2925,-90.9681,21.3,26.6,272.4,-9999.0,'111111111,111111111,999999991'
Anadarko,ioos:station:wmo:42377:1,2024-05-02T09:54:00Z,27.2925,-90.9681,21.3,25.5,277.4,-9999.0,'111111111,111111111,999999991'
Anadarko,ioos:station:wmo:42377:1,2024-05-02T10:14:00Z,27.2925,-90.9681,21.3,23.6,279.7,-9999.0,'111111111,111111111,999999991'
Anadarko,ioos:station:wmo:42377:1,2024-05-02T10:34:00Z,27.2925,-90.9681,21.3,28.9,279.8,-9999.0,'111111111,111111111,999999991'
Anadarko,ioos:station:wmo:42377:1,2024-05-02T10:54:00Z,27.2925,-90.9681,21.3,26.4,284.2,-9999.0,'111111111,111111111,999999991'
Anadarko,ioos:station:wmo:42377:1,2024-05-02T11:14:00Z,27.2925,-90.9681,21.3,18.2,286.6,-9999.0,'111111111,111111111,999999991'
Anadarko,ioos:station:wmo:42377:1,2024-05-02T11:34:00Z,27.2925,-90.9681,21.3,19.0,300.8,-9999.0,'111111111,111111111,999999991'
Anadarko,ioos:station:wmo:42377:1,2024-05-02T11:54:00Z,27.2925,-90.9681,21.3,19.3,304.0,-9999.0,'111111111,111111111,999999991'
Anadarko,ioos:station:wmo:42377:1,2024-05-02T12:14:00Z,27.2925,-90.9681,21.3,20.2,307.8,-9999.0,'111111111,111111111,999999991'
Anadarko,ioos:station:wmo:42377:1,2024-05-02T12:34:00Z,27.2925,-90.9681,21.3,18.6,296.6,-9999.0,'111111111,111111111,999999991'
Anadarko,ioos:station:wmo:42377:1,2024-05-02T12:54:00Z,27.2925,-90.9681,21.3,19.1,298.9,-9999.0,'111111111,111111111,999999991'
Anadarko,ioos:station:wmo:42377:1,2024-05-02T13:14:00Z,27.2925,-90.9681,21.3,19.4,303.4,-9999.0,'111111111,111111111,999999991'
Anadarko,ioos:station:wmo:42377:1,2024-05-02T13:34:00Z,27.2925,-90.9681,21.3,18.2,324.4,-9999.0,'111111111,111111111,999999991'
Anadarko,ioos:station:wmo:42377:1,2024-05-02T13:54:00Z,27.2925,-90.9681,21.3,17.8,318.4,-9999.0,'111111111,111111111,999999991'
Anadarko,ioos:station:wmo:42377:1,2024-05-02T14:14:00Z,27.2925,-90.9681,21.3,17.2,308.4,-9999.0,'111111111,111111111,999999991'
Anadarko,ioos:station:wmo:42377:1,2024-05-02T14:34:00Z,27.2925,-90.9681,21.3,18.6,312.2,-9999.0,'111111111,111111111,999999991'
Anadarko,ioos:station:wmo:42377:1,2024-05-02T14:54:00Z,27.2925,-90.9681,21.3,22.7,297.8,-9999.0,'111111111,111111111,999999991'
Anadarko,ioos:station:wmo:42377:1,2024-05-02T15:14:00Z,27.2925,-90.9681,21.3,16.9,318.6,-9999.0,'111111111,111111111,999999991'
Anadarko,ioos:station:wmo:42377:1,2024-05-02T15:34:00Z,27.2925,-90.9681,21.3,16.7,320.1,-9999.0,'111111111,111111111,999999991'
Anadarko,ioos:station:wmo:42377:1,2024-05-02T15:54:00Z,27.2925,-90.9681,21.3,16.7,329.7,-9999.0,'111111111,111111111,999999991'
Anadarko,ioos:station:wmo:42377:1,2024-05-02T16:14:00Z,27.2925,-90.9681,21.3,14.9,333.3,-9999.0,'111111111,111111111,999999991'
Anadarko,ioos:station:wmo:42377:1,2024-05-02T16:34:00Z,27.2925,-90.9681,21.3,12.3,334.5,-9999.0,'111111111,111111111,999999991'
Anadarko,ioos:station:wmo:42377:1,2024-05-02T16:54:00Z,27.2925,-90.9681,21.3,9.2,4.4,-9999.0,'111111111,111111111,999999991'
Anadarko,ioos:station:wmo:42377:1,2024-05-02T17:14:00Z,27.2925,-90.9681,21.3,7.7,337.8,-9999.0,'111111111,111111111,999999991'
Anadarko,ioos:station:wmo:42377:1,2024-05-02T17:34:00Z,27.2925,-90.9681,21.3,9.6,332.6,-9999.0,'111111111,111111111,999999991'
Anadarko,ioos:station:wmo:42377:1,2024-05-02T17:54:00Z,27.2925,-90.9681,21.3,7.3,332.4,-9999.0,'111111111,111111111,999999991'
Anadarko,ioos:station:wmo:42377:1,2024-05-02T18:14:00Z,27.2925,-90.9681,21.3,10.3,323.7,-9999.0,'111111111,111111111,999999991'
Anadarko,ioos:station:wmo:42377:1,2024-05-02T18:34:00Z,27.2925,-90.9681,21.3,6.7,356.6,-9999.0,'111111111,111111111,999999991'
Anadarko,ioos:station:wmo:42377:1,2024-05-02T18:54:00Z,27.2925,-90.9681,21.3,9.4,48.9,-9999.0,'111111111,111111111,999999991'
Anadarko,ioos:station:wmo:42377:1,2024-05-02T19:14:00Z,27.2925,-90.9681,21.3,6.5,14.3,-9999.0,'111111111,111111111,999999991'
Anadarko,ioos:station:wmo:42377:1,2024-05-02T19:34:00Z,27.2925,-90.9681,21.3,9.4,288.0,-9999.0,'111111111,111111111,999999991'
Anadarko,ioos:station:wmo:42377:1,2024-05-02T19:54:00Z,27.2925,-90.9681,21.3,7.8,24.3,-9999.0,'111111111,111111111,999999991'
Anadarko,ioos:station:wmo:42377:1,2024-05-02T20:14:00Z,27.2925,-90.9681,21.3,12.4,25.3,-9999.0,'111111111,111111111,999999991'
Anadarko,ioos:station:wmo:42377:1,2024-05-02T20:34:00Z,27.2925,-90.9681,21.3,10.2,274.5,-9999.0,'111111111,111111111,999999991'
Anadarko,ioos:station:wmo:42377:1,2024-05-02T20:54:00Z,27.2925,-90.9681,21.3,8.5,36.9,-9999.0,'111111111,111111111,999999991'
Anadarko,ioos:station:wmo:42377:1,2024-05-02T21:14:00Z,27.2925,-90.9681,21.3,13.3,251.2,-9999.0,'111111111,111111111,999999991'
Anadarko,ioos:station:wmo:42377:1,2024-05-02T21:34:00Z,27.2925,-90.9681,21.3,6.6,257.8,-9999.0,'111111111,111111111,999999991'
Anadarko,ioos:station:wmo:42377:1,2024-05-02T21:53:00Z,27.2925,-90.9681,21.3,5.4,295.1,-9999.0,'111111111,111111111,999999991'
Anadarko,ioos:station:wmo:42377:1,2024-05-02T22:13:00Z,27.2925,-90.9681,21.3,8.6,60.8,-9999.0,'111111111,111111111,999999991'
Anadarko,ioos:station:wmo:42377:1,2024-05-02T22:33:00Z,27.2925,-90.9681,21.3,13.1,114.4,-9999.0,'111111111,111111111,999999991'
Anadarko,ioos:station:wmo:42377:1,2024-05-02T22:53:00Z,27.2925,-90.9681,21.3,6.2,157.2,-9999.0,'111111111,111111111,999999991'
Anadarko,ioos:station:wmo:42377:1,2024-05-02T23:13:00Z,27.2925,-90.9681,21.3,7.2,132.2,-9999.0,'111111111,111111111,999999991'
Anadarko,ioos:station:wmo:42377:1,2024-05-02T23:33:00Z,27.2925,-90.9681,21.3,10.1,107.9,-9999.0,'111111111,111111111,999999991'
Anadarko,ioos:station:wmo:42377:1,2024-05-02T23:53:00Z,27.2925,-90.9681,21.3,10.1,127.0,-9999.0,'111111111,111111111,999999991'
Anadarko,ioos:station:wmo:42377:1,2024-05-03T00:13:00Z,27.2925,-90.9681,21.3,11.3,138.6,-9999.0,'111111111,111111111,999999991'
Anadarko,ioos:station:wmo:42377:1,2024-05-03T00:33:00Z,27.2925,-90.9681,21.3,13.1,140.6,-9999.0,'111111111,111111111,999999991'
Anadarko,ioos:station:wmo:42377:1,2024-05-03T00:53:00Z,27.2925,-90.9681,21.3,12.0,135.7,-9999.0,'111111111,111111111,999999991'
Anadarko,ioos:station:wmo:42377:1,2024-05-03T01:13:00Z,27.2925,-90.9681,21.3,13.7,120.7,-9999.0,'111111111,111111111,999999991'
Anadarko,ioos:station:wmo:42377:1,2024-05-03T01:33:00Z,27.2925,-90.9681,21.3,13.0,132.2,-9999.0,'111111111,111111111,999999991'
Anadarko,ioos:station:wmo:42377:1,2024-05-03T01:53:00Z,27.2925,-90.9681,21.3,13.3,148.2,-9999.0,'111111111,111111111,999999991'
Anadarko,ioos:station:wmo:42377:1,2024-05-03T02:13:00Z,27.2925,-90.9681,21.3,15.4,150.8,-9999.0,'111111111,111111111,999999991'
Anadarko,ioos:station:wmo:42377:1,2024-05-03T02:33:00Z,27.2925,-90.9681,21.3,16.3,156.4,-9999.0,'111111111,111111111,999999991'
Anadarko,ioos:station:wmo:42377:1,2024-05-03T02:53:00Z,27.2925,-90.9681,21.3,18.9,163.1,-9999.0,'111111111,111111111,999999991'
Anadarko,ioos:station:wmo:42377:1,2024-05-03T03:13:00Z,27.2925,-90.9681,21.3,21.6,174.2,-9999.0,'111111111,111111111,999999991'
Anadarko,ioos:station:wmo:42377:1,2024-05-03T03:33:00Z,27.2925,-90.9681,21.3,25.2,178.2,-9999.0,'111111111,111111111,999999991'
Anadarko,ioos:station:wmo:42377:1,2024-05-03T03:53:00Z,27.2925,-90.9681,21.3,28.2,190.8,-9999.0,'111111111,111111111,999999991'
Anadarko,ioos:station:wmo:42377:1,2024-05-03T04:13:00Z,27.2925,-90.9681,21.3,29.3,199.1,-9999.0,'111111111,111111111,999999991'
Anadarko,ioos:station:wmo:42377:1,2024-05-03T04:33:00Z,27.2925,-90.9681,21.3,27.4,199.2,-9999.0,'111111111,111111111,999999991'
Anadarko,ioos:station:wmo:42377:1,2024-05-03T04:53:00Z,27.2925,-90.9681,21.3,26.0,201.2,-9999.0,'111111111,111111111,999999991'
Anadarko,ioos:station:wmo:42377:1,2024-05-03T05:13:00Z,27.2925,-90.9681,21.3,24.6,204.3,-9999.0,'111111111,111111111,999999991'
Anadarko,ioos:station:wmo:42377:1,2024-05-03T05:33:00Z,27.2925,-90.9681,21.3,24.1,214.3,-9999.0,'111111111,111111111,999999991'
Anadarko,ioos:station:wmo:42377:1,2024-05-03T05:53:00Z,27.2925,-90.9681,21.3,23.0,215.1,-9999.0,'111111111,111111111,999999991'
Anadarko,ioos:station:wmo:42377:1,2024-05-03T06:13:00Z,27.2925,-90.9681,21.3,22.2,213.3,-9999.0,'111111111,111111111,999999991'
Anadarko,ioos:station:wmo:42377:1,2024-05-03T06:33:00Z,27.2925,-90.9681,21.3,22.9,205.1,-9999.0,'111111111,111111111,999999991'
Anadarko,ioos:station:wmo:42377:1,2024-05-03T06:53:00Z,27.2925,-90.9681,21.3,22.6,204.6,-9999.0,'111111111,111111111,999999991'
Anadarko,ioos:station:wmo:42377:1,2024-05-03T07:13:00Z,27.2925,-90.9681,21.3,23.1,209.3,-9999.0,'111111111,111111111,999999991'
Anadarko,ioos:station:wmo:42377:1,2024-05-03T07:33:00Z,27.2925,-90.9681,21.3,24.3,214.1,-9999.0,'111111111,111111111,999999991'
Anadarko,ioos:station:wmo:42377:1,2024-05-03T07:53:00Z,27.2925,-90.9681,21.3,26.3,224.4,-9999.0,'111111111,111111111,999999991'
Anadarko,ioos:station:wmo:42377:1,2024-05-03T08:13:00Z,27.2925,-90.9681,21.3,24.5,242.8,-9999.0,'111111111,111111111,999999991'
Anadarko,ioos:station:wmo:42377:1,2024-05-03T08:33:00Z,27.2925,-90.9681,21.3,23.9,248.9,-9999.0,'111111111,111111111,999999991'
Anadarko,ioos:station:wmo:42377:1,2024-05-03T08:53:00Z,27.2925,-90.9681,21.3,24.1,252.1,-9999.0,'111111111,111111111,999999991'
Anadarko,ioos:station:wmo:42377:1,2024-05-03T09:13:00Z,27.2925,-90.9681,21.3,22.6,253.6,-9999.0,'111111111,111111111,999999991'
Anadarko,ioos:station:wmo:42377:1,2024-05-03T09:33:00Z,27.2925,-90.9681,21.3,24.2,253.7,-9999.0,'111111111,111111111,999999991'
Anadarko,ioos:station:wmo:42377:1,2024-05-03T09:53:00Z,27.2925,-90.9681,21.3,22.1,258.8,-9999.0,'111111111,111111111,999999991'
Anadarko,ioos:station:wmo:42377:1,2024-05-03T10:13:00Z,27.2925,-90.9681,21.3,18.2,266.5,-9999.0,'111111111,111111111,999999991'
Anadarko,ioos:station:wmo:42377:1,2024-05-03T10:33:00Z,27.2925,-90.9681,21.3,22.3,261.8,-9999.0,'111111111,111111111,999999991'
Anadarko,ioos:station:wmo:42377:1,2024-05-03T10:53:00Z,27.2925,-90.9681,21.3,21.0,265.6,-9999.0,'111111111,111111111,999999991'
Anadarko,ioos:station:wmo:42377:1,2024-05-03T11:13:00Z,27.2925,-90.9681,21.3,20.2,265.2,-9999.0,'111111111,111111111,999999991'
Anadarko,ioos:station:wmo:42377:1,2024-05-03T11:33:00Z,27.2925,-90.9681,21.3,20.0,272.0,-9999.0,'111111111,111111111,999999991'
Anadarko,ioos:station:wmo:42377:1,2024-05-03T11:53:00Z,27.2925,-90.9681,21.3,19.5,282.1,-9999.0,'111111111,111111111,999999991'
Anadarko,ioos:station:wmo:42377:1,2024-05-03T12:13:00Z,27.2925,-90.9681,21.3,16.6,291.9,-9999.0,'111111111,111111111,999999991'
Anadarko,ioos:station:wmo:42377:1,2024-05-03T12:33:00Z,27.2925,-90.9681,21.3,19.0,286.8,-9999.0,'111111111,111111111,999999991'
Anadarko,ioos:station:wmo:42377:1,2024-05-03T12:53:00Z,27.2925,-90.9681,21.3,17.8,291.1,-9999.0,'111111111,111111111,999999991'
Anadarko,ioos:station:wmo:42377:1,2024-05-03T13:13:00Z,27.2925,-90.9681,21.3,19.1,300.6,-9999.0,'111111111,111111111,999999991'
Anadarko,ioos:station:wmo:42377:1,2024-05-03T13:33:00Z,27.2925,-90.9681,21.3,16.9,294.1,-9999.0,'111111111,111111111,999999991'